SCP
-0 -0 -0 -0 -0 -0 -0 -0 0 0 0 0 0 0 0 0 0 0 0 0 0 0 1 0 0 0 0 0 0 0 0 0 0 0 0 0 0 0 0 0 0 0 0 0
-0 0 -0 -0 -0 -0 -0 0 -0 -0 0 0 0 0 0 0 0 0 0 0 0 0 0 0 0 0 0 0 0 0 0 0 0 0 0 0 0 0 0 0 0 0 0 0
0 -0 -0 -0 -0 -0 0 0 -0 0 0 0 0 0 0 0 0 0 0 0 1 0 0 0 0 0 0 0 0 0 0 0 0 0 0 0 0 0 0 0 0 0 0 0
-0 -0 0 0 0 -0 0 0 0 -0 0 0 0 0 0 -0 0 0 0 0 1 0 0 0 0 0 0 0 0 0 0 0 0 0 0 -0 -0 -0 -0 0 0 0 0 0
0 0 -0 0 0 0 0 0 0 -0 0 0 0 0 -0 0 0 0 0 0 1 0 0 0 0 0 0 0 0 0 0 0 0 0 -0 -0 -0 -0 -0 -0 0 0 0 -0
0 0 0 0 0 0 0 -0 0 0 0 0 0 -0 0 0 0 0 1 1 1 0 0 0 0 0 0 0 0 0 0 0 -0 -0 -0 -0 -0 -0 0 0 0 0 0 -0
0 0 0 0 0 -0 -0 0 -0 0 0 0 0 0 0 0 0 0 1 1 0 0 0 0 0 0 0 0 0 0 0 -0 -0 -0 -0 -0 -0 -0 0 0 0 0 0 0
0 0 0 0 -0 0 0 -0 -0 0 0 0 0 0 0 0 0 0 1 1 0 0 0 0 0 0 0 -0 0 0 0 -0 -0 -0 -0 -0 -0 -0 -0 -0 -0 0 0 0
0 0 -0 0 0 -0 -0 -0 -0 0 0 0 0 0 0 0 0 0 1 1 0 0 0 0 0 0 0 -0 -0 0 -0 -0 -0 -0 -0 -0 -0 -0 -0 -0 0 0 0 0
0 0 -0 -0 -0 -0 -0 0 0 0 0 0 0 0 0 0 1 2 2 1 0 0 0 0 0 0 -0 -0 0 0 -0 -0 -0 -0 -0 -0 -0 -0 -0 -0 0 0 0 0
0 -0 -0 0 -0 -0 -0 0 0 0 0 0 0 0 0 0 1 2 2 1 0 0 0 0 0 0 -0 -0 0 -0 -0 -0 0 -0 -0 -0 -0 0 -0 0 0 0 0 0
0 -0 -0 -0 -0 0 -0 0 0 0 0 0 0 0 1 0 1 1 1 1 0 0 0 0 0 0 0 0 0 -0 0 0 0 -0 -0 -0 -0 -0 -0 0 0 0 0 0
-0 0 0 0 0 -0 0 0 0 0 0 0 0 0 0 0 0 0 1 1 0 0 0 0 0 -0 -0 -0 0 0 0 -0 0 0 -0 0 0 0 0 0 0 0 0 0
-0 0 -0 -0 0 0 0 0 0 0 0 0 0 0 0 0 0 0 0 1 0 0 0 0 0 -0 -0 -0 0 0 -0 -0 0 -0 -0 0 0 0 0 0 0 0 0 0
-0 0 -0 -0 0 0 0 0 0 0 0 0 0 0 0 0 0 0 0 0 0 0 0 0 0 0 0 -0 -0 -0 -0 -0 0 0 -0 -0 0 0 0 0 -0 0 0 0
-0 0 -0 -0 0 0 0 0 0 0 0 0 0 0 0 0 0 0 0 0 0 0 0 0 0 0 0 0 -0 -0 -0 0 0 0 0 0 0 0 0 0 -0 -0 -0 0
-0 0 0 0 0 0 0 0 0 0 0 0 0 0 0 0 0 0 0 0 0 -0 0 0 0 0 0 0 0 0 0 0 0 0 -0 -0 0 0 0 0 0 0 0 0
-0 -0 -0 0 0 0 0 0 0 0 0 0 0 0 0 0 0 0 0 0 0 0 0 0 0 0 0 0 0 0 0 0 0 0 0 0 0 0 0 0 0 0 0 0
-0 -0 0 0 0 0 0 0 0 0 0 0 0 0 0 0 0 0 0 0 0 0 0 0 0 0 0 0 0 0 0 0 0 0 0 0 0 0 0 0 0 0 0 0
-0 0 -0 -0 0 0 0 0 0 0 0 0 0 0 0 0 0 0 0 0 0 0 0 0 0 0 0 0 0 0 0 0 0 0 0 0 0 0 0 0 0 0 0 0
0 0 0 -0 0 0 0 0 0 0 0 0 0 0 0 0 0 0 0 0 0 0 0 0 0 0 0 0 0 0 0 1 0 0 0 0 0 0 0 0 0 0 0 0
0 0 -0 -0 -0 -0 0 0 0 0 0 0 0 0 0 0 0 0 0 0 0 0 0 0 0 0 0 0 0 0 0 0 0 0 0 0 0 0 0 0 0 0 0 0
0 0 0 -0 -0 -0 -0 -0 0 0 0 0 0 0 0 0 0 0 0 0 0 0 0 0 0 0 0 0 0 0 0 0 0 0 0 0 0 0 0 0 0 0 0 0
0 -0 0 0 0 -0 -0 -0 -0 -0 0 0 0 0 0 0 0 0 0 0 0 0 0 0 0 0 0 0 0 0 0 0 0 0 0 0 0 0 0 0 0 0 0 0
-0 -0 -0 0 0 0 0 0 0 0 0 -0 0 0 0 0 0 0 0 0 0 0 0 0 0 0 0 0 0 0 0 0 0 0 0 0 0 0 0 0 0 0 0 0
-0 -0 -0 0 0 0 0 0 0 0 0 0 0 0 0 0 0 0 0 0 0 0 0 0 0 0 0 0 0 0 0 0 0 0 0 0 0 0 0 0 0 0 0 0
0 -0 0 -0 -0 -0 0 0 0 0 0 0 0 0 0 0 0 0 0 0 0 0 0 0 0 0 0 0 0 0 0 0 0 0 0 0 0 0 0 0 0 0 0 0
Wind_Speed_500mb
35 39 36 38 37 37 38 38 39 38 43 37 38 35 36 46 53 44 41 34 4 11 14 29 39 43 44 46 46 44 41 38 36 34 31 29 29 30 29 28 23 18 13 9
34 32 35 41 42 43 44 45 43 47 54 47 53 61 50 55 48 40 34 31 0 18 21 32 40 44 47 47 43 40 38 36 35 31 29 28 29 31 31 26 22 18 13 8
29 28 24 29 34 38 36 39 36 41 48 41 45 43 38 51 43 42 38 32 7 26 29 35 42 45 47 45 42 40 38 36 31 28 26 26 30 32 28 24 21 17 14 8
14 18 20 24 6 21 19 25 33 38 44 47 44 48 41 43 42 43 40 33 13 32 37 39 44 46 45 42 41 40 37 33 27 24 25 30 33 31 26 25 22 14 15 9
8 18 31 37 11 12 16 35 37 47 40 42 41 40 40 35 39 45 39 26 20 39 42 45 49 48 45 42 42 38 34 30 25 24 30 31 30 27 29 26 19 15 14 9
9 10 9 5 9 10 14 31 26 20 28 29 22 23 19 13 12 28 18 18 31 42 46 52 53 50 46 45 42 36 32 28 24 26 30 30 28 28 25 25 19 13 13 10
27 14 14 3 17 19 11 10 40 36 36 40 23 19 25 30 35 30 23 14 37 43 51 54 54 52 49 46 41 35 29 27 26 29 30 31 28 26 25 26 22 18 16 13
6 10 6 18 21 9 19 54 44 45 40 38 42 35 35 38 39 33 24 24 40 47 50 53 53 50 49 46 41 33 30 30 30 31 29 30 28 25 24 24 22 19 18 15
6 8 31 42 21 49 52 54 61 49 44 39 40 38 34 34 36 31 16 31 41 47 50 50 49 48 50 48 41 35 36 33 31 29 27 25 25 24 23 23 21 18 17 16
8 9 29 43 29 32 38 55 68 53 45 39 37 32 32 29 27 18 11 30 43 47 49 51 48 47 50 48 42 36 37 35 31 28 24 20 17 17 20 20 20 19 19 19
14 26 36 4 39 44 51 52 20 11 13 15 20 24 23 24 19 14 17 35 45 47 49 49 49 48 50 47 42 40 40 34 29 23 21 18 14 14 10 15 19 18 18 19
7 33 24 18 44 43 54 49 23 17 7 10 14 16 23 17 11 12 22 40 47 48 48 50 50 48 48 47 43 43 40 35 29 24 19 17 16 17 18 17 20 23 27 20
18 39 35 35 38 45 54 45 27 24 24 12 6 12 22 17 16 23 29 39 42 48 50 48 46 46 46 45 44 42 37 32 29 24 19 17 19 17 23 22 20 21 22 22
26 37 31 35 35 43 50 42 36 42 44 28 32 31 27 24 27 28 35 32 34 39 43 45 42 42 42 43 44 42 35 33 27 23 19 16 19 18 17 18 20 23 23 24
28 29 30 35 36 38 38 33 48 54 48 43 36 34 33 36 39 37 33 37 47 50 39 38 35 32 36 37 40 43 37 31 26 24 20 18 17 20 19 18 23 21 28 28
26 34 39 41 39 38 39 42 44 47 36 38 41 35 39 46 42 40 37 33 41 37 35 35 30 18 26 34 37 40 37 32 26 25 23 20 17 20 18 19 19 20 20 25
30 33 36 41 41 37 33 31 31 40 40 45 44 44 49 46 46 50 48 49 43 36 34 29 26 33 26 28 35 37 38 34 29 26 24 23 19 19 19 19 18 19 21 16
19 21 25 23 27 32 33 31 38 44 52 45 43 50 54 48 43 43 48 38 39 45 48 26 23 24 32 44 38 32 34 33 33 27 25 24 22 19 19 20 19 19 21 20
18 22 28 30 33 32 26 26 30 32 35 33 34 47 46 41 44 41 43 48 52 57 53 23 11 21 26 32 42 28 31 30 33 30 27 25 25 23 20 19 20 20 19 18
15 22 28 31 35 36 31 25 23 26 28 30 31 35 41 37 38 42 40 50 50 49 40 30 24 15 13 30 32 34 24 28 31 29 26 26 24 24 24 19 19 20 19 16
15 21 28 29 33 36 37 32 25 26 26 27 31 31 32 34 30 31 36 44 43 35 34 22 29 17 12 18 27 37 37 32 26 28 24 22 21 22 21 21 22 18 18 17
13 18 24 28 31 33 35 33 33 32 31 30 29 25 25 30 34 38 44 41 38 29 26 24 13 10 6 11 25 28 37 42 43 40 30 28 32 35 34 30 25 21 20 18
11 13 18 23 27 28 31 35 36 37 37 36 36 36 37 36 33 36 44 43 34 29 25 21 13 9 15 21 29 35 37 38 39 41 40 38 37 37 37 36 35 34 33 32
12 11 14 18 20 23 31 30 33 37 39 39 39 38 36 42 46 45 42 38 35 34 31 26 20 18 25 36 40 43 44 44 42 38 37 41 44 40 37 33 29 27 26 24
9 12 13 12 17 22 24 23 26 28 33 39 40 40 38 38 43 41 41 39 40 43 44 41 42 42 45 49 51 51 49 50 53 55 53 49 46 47 50 46 44 43 37 36
18 12 11 11 12 15 18 19 23 22 24 30 33 32 34 36 36 38 40 45 47 48 53 58 61 64 67 65 67 71 71 69 65 65 65 66 62 59 58 57 51 46 48 49
20 20 15 15 14 15 16 19 20 23 23 27 33 32 34 36 37 36 37 36 38 42 47 50 55 58 60 63 64 65 66 70 70 68 65 63 61 59 59 54 51 52 52 46
Wind_Direction_500mb
271 276 275 275 270 265 257 259 260 263 267 267 273 299 313 312 304 312 324 350 46 188 163 155 149 145 142 140 140 140 141 140 139 140 142 142 145 150 151 150 151 154 145 151
275 265 266 268 267 261 257 255 254 259 264 267 273 275 280 288 298 305 317 331 173 189 170 161 153 148 146 144 143 143 141 138 138 140 145 150 150 153 152 153 154 152 137 134
268 274 295 278 267 265 260 254 254 254 260 270 269 268 272 279 291 296 303 317 238 188 177 166 158 154 152 148 146 144 141 141 141 143 150 155 158 155 157 159 157 150 127 120
273 299 259 254 342 316 304 297 288 270 261 262 266 273 271 269 279 290 292 298 211 184 178 169 161 157 154 150 149 146 147 146 149 150 154 148 152 159 163 155 156 145 126 110
240 230 277 295 295 306 309 289 292 275 262 272 260 264 263 261 276 284 279 273 199 180 172 165 162 161 157 153 152 152 151 154 156 156 162 160 162 166 164 164 160 144 127 115
243 249 262 41 163 358 322 276 27 328 313 299 251 241 256 253 315 312 295 267 177 175 167 164 164 163 158 155 156 157 159 159 155 158 162 162 164 165 168 173 160 149 130 122
247 257 262 6 7 323 226 344 322 330 320 314 282 265 283 300 300 305 294 238 170 169 166 166 165 162 160 158 159 157 156 152 156 157 158 164 165 170 172 167 166 155 139 130
261 239 262 1 318 248 332 312 299 305 297 284 291 275 276 279 290 291 278 184 168 165 165 165 164 162 162 162 158 157 151 152 153 152 152 165 170 166 172 176 171 165 152 145
246 299 288 295 257 278 278 274 284 287 280 274 271 273 276 278 281 272 243 174 167 164 163 164 164 163 162 161 160 156 151 151 152 146 146 155 167 184 182 189 183 173 164 157
307 280 294 311 301 302 298 280 283 270 256 267 268 269 269 269 258 241 206 173 165 164 164 164 164 163 162 160 160 158 155 155 152 146 147 150 162 181 186 187 183 176 167 158
259 274 310 266 320 337 327 328 346 297 263 263 265 268 254 256 226 222 195 174 164 164 165 164 164 163 164 162 159 157 158 156 151 155 148 151 153 157 164 175 175 174 165 164
284 302 317 318 337 341 340 341 7 9 352 281 263 244 237 185 160 168 165 161 163 163 160 160 162 162 166 165 163 159 158 157 152 147 146 155 155 156 152 149 156 168 158 155
328 330 313 331 329 344 341 346 15 24 44 64 226 191 148 130 117 116 133 152 161 160 158 155 156 166 168 168 168 166 163 160 156 150 149 155 163 162 146 144 143 149 153 163
339 344 347 355 346 346 345 0 27 50 60 61 81 98 114 114 100 102 112 130 134 153 159 163 165 166 170 175 174 175 170 167 161 159 157 153 162 165 154 151 141 148 147 147
359 11 0 349 349 346 353 7 36 39 48 52 73 90 91 91 85 83 93 113 135 125 129 145 151 165 175 177 180 181 176 173 170 169 165 156 158 170 157 157 141 141 151 151
4 16 2 358 352 355 7 13 31 33 37 58 72 75 82 86 85 91 106 112 127 127 125 117 121 132 160 181 179 179 178 176 169 170 169 167 157 166 160 146 136 138 142 167
16 14 5 353 352 359 8 22 18 27 45 61 66 81 92 87 91 91 88 98 113 120 131 135 151 152 157 166 178 175 176 182 170 169 163 166 164 163 167 162 149 144 145 160
30 17 18 4 360 1 7 18 28 27 35 44 66 82 84 84 81 93 101 99 90 101 92 112 137 166 174 173 163 177 175 182 182 180 177 177 172 163 165 167 165 154 156 155
33 25 20 22 22 26 32 33 33 36 46 48 61 73 81 74 78 81 91 93 84 77 82 93 138 164 170 176 173 163 178 180 184 186 182 181 178 176 170 166 170 170 169 177
43 33 24 28 32 38 43 52 47 43 46 52 57 65 70 70 76 76 78 78 74 72 79 76 79 88 144 171 178 176 166 185 187 187 186 183 181 181 179 177 167 167 168 173
35 38 37 31 28 33 38 47 61 61 54 59 60 57 57 63 69 76 82 79 71 63 78 64 40 44 98 162 175 191 178 156 177 177 176 168 164 168 171 169 178 165 162 171
36 33 36 39 39 39 39 44 55 62 64 63 63 66 68 65 64 68 76 75 74 73 68 87 88 77 100 174 172 181 184 178 157 136 136 141 141 143 140 133 130 129 127 123
67 62 53 53 50 53 50 50 51 60 64 64 64 67 70 71 73 79 77 75 77 84 96 100 96 105 140 141 142 153 161 167 170 170 163 161 159 160 166 168 166 165 170 174
106 78 65 69 72 66 59 55 58 58 66 68 69 78 79 79 81 78 80 88 94 95 100 112 112 119 116 117 123 134 140 142 141 145 147 144 140 138 138 139 142 143 142 141
125 107 91 72 72 75 72 63 58 57 58 65 70 76 84 90 89 89 91 95 99 104 106 109 107 106 105 105 106 106 109 117 123 126 128 127 122 119 118 122 123 115 113 113
151 132 116 105 103 90 82 76 74 69 66 71 71 71 73 77 84 90 92 95 98 101 101 100 99 99 97 96 98 99 98 99 98 98 98 99 99 99 99 96 95 94 93 94
160 151 135 122 119 111 105 100 91 82 80 86 85 79 77 78 81 83 85 83 84 87 90 91 93 93 93 91 90 91 94 95 94 92 91 92 91 89 89 87 84 86 84 78
Wind_Speed_850mb
35 39 36 38 37 37 38 38 39 38 43 37 38 35 36 46 53 44 41 34 4 11 14 29 39 43 44 46 46 44 41 38 36 34 31 29 29 30 29 28 23 18 13 9
34 32 35 41 42 43 44 45 43 47 54 47 53 61 50 55 48 40 34 31 0 18 21 32 40 44 47 47 43 40 38 36 35 31 29 28 29 31 31 26 22 18 13 8
29 28 24 29 34 38 36 39 36 41 48 41 45 43 38 51 43 42 38 32 7 26 29 35 42 45 47 45 42 40 38 36 31 28 26 26 30 32 28 24 21 17 14 8
14 18 20 24 6 21 19 25 33 38 44 47 44 48 41 43 42 43 40 33 13 32 37 39 44 46 45 42 41 40 37 33 27 24 25 30 33 31 26 25 22 14 15 9
8 18 31 37 11 12 16 35 37 47 40 42 41 40 40 35 39 45 39 26 20 39 42 45 49 48 45 42 42 38 34 30 25 24 30 31 30 27 29 26 19 15 14 9
9 10 9 5 9 10 14 31 26 20 28 29 22 23 19 13 12 28 18 18 31 42 46 52 53 50 46 45 42 36 32 28 24 26 30 30 28 28 25 25 19 13 13 10
27 14 14 3 17 19 11 10 40 36 36 40 23 19 25 30 35 30 23 14 37 43 51 54 54 52 49 46 41 35 29 27 26 29 30 31 28 26 25 26 22 18 16 13
6 10 6 18 21 9 19 54 44 45 40 38 42 35 35 38 39 33 24 24 40 47 50 53 53 50 49 46 41 33 30 30 30 31 29 30 28 25 24 24 22 19 18 15
6 8 31 42 21 49 52 54 61 49 44 39 40 38 34 34 36 31 16 31 41 47 50 50 49 48 50 48 41 35 36 33 31 29 27 25 25 24 23 23 21 18 17 16
8 9 29 43 29 32 38 55 68 53 45 39 37 32 32 29 27 18 11 30 43 47 49 51 48 47 50 48 42 36 37 35 31 28 24 20 17 17 20 20 20 19 19 19
14 26 36 4 39 44 51 52 20 11 13 15 20 24 23 24 19 14 17 35 45 47 49 49 49 48 50 47 42 40 40 34 29 23 21 18 14 14 10 15 19 18 18 19
7 33 24 18 44 43 54 49 23 17 7 10 14 16 23 17 11 12 22 40 47 48 48 50 50 48 48 47 43 43 40 35 29 24 19 17 16 17 18 17 20 23 27 20
18 39 35 35 38 45 54 45 27 24 24 12 6 12 22 17 16 23 29 39 42 48 50 48 46 46 46 45 44 42 37 32 29 24 19 17 19 17 23 22 20 21 22 22
26 37 31 35 35 43 50 42 36 42 44 28 32 31 27 24 27 28 35 32 34 39 43 45 42 42 42 43 44 42 35 33 27 23 19 16 19 18 17 18 20 23 23 24
28 29 30 35 36 38 38 33 48 54 48 43 36 34 33 36 39 37 33 37 47 50 39 38 35 32 36 37 40 43 37 31 26 24 20 18 17 20 19 18 23 21 28 28
26 34 39 41 39 38 39 42 44 47 36 38 41 35 39 46 42 40 37 33 41 37 35 35 30 18 26 34 37 40 37 32 26 25 23 20 17 20 18 19 19 20 20 25
30 33 36 41 41 37 33 31 31 40 40 45 44 44 49 46 46 50 48 49 43 36 34 29 26 33 26 28 35 37 38 34 29 26 24 23 19 19 19 19 18 19 21 16
19 21 25 23 27 32 33 31 38 44 52 45 43 50 54 48 43 43 48 38 39 45 48 26 23 24 32 44 38 32 34 33 33 27 25 24 22 19 19 20 19 19 21 20
18 22 28 30 33 32 26 26 30 32 35 33 34 47 46 41 44 41 43 48 52 57 53 23 11 21 26 32 42 28 31 30 33 30 27 25 25 23 20 19 20 20 19 18
15 22 28 31 35 36 31 25 23 26 28 30 31 35 41 37 38 42 40 50 50 49 40 30 24 15 13 30 32 34 24 28 31 29 26 26 24 24 24 19 19 20 19 16
15 21 28 29 33 36 37 32 25 26 26 27 31 31 32 34 30 31 36 44 43 35 34 22 29 17 12 18 27 37 37 32 26 28 24 22 21 22 21 21 22 18 18 17
13 18 24 28 31 33 35 33 33 32 31 30 29 25 25 30 34 38 44 41 38 29 26 24 13 10 6 11 25 28 37 42 43 40 30 28 32 35 34 30 25 21 20 18
11 13 18 23 27 28 31 35 36 37 37 36 36 36 37 36 33 36 44 43 34 29 25 21 13 9 15 21 29 35 37 38 39 41 40 38 37 37 37 36 35 34 33 32
12 11 14 18 20 23 31 30 33 37 39 39 39 38 36 42 46 45 42 38 35 34 31 26 20 18 25 36 40 43 44 44 42 38 37 41 44 40 37 33 29 27 26 24
9 12 13 12 17 22 24 23 26 28 33 39 40 40 38 38 43 41 41 39 40 43 44 41 42 42 45 49 51 51 49 50 53 55 53 49 46 47 50 46 44 43 37 36
18 12 11 11 12 15 18 19 23 22 24 30 33 32 34 36 36 38 40 45 47 48 53 58 61 64 67 65 67 71 71 69 65 65 65 66 62 59 58 57 51 46 48 49
20 20 15 15 14 15 16 19 20 23 23 27 33 32 34 36 37 36 37 36 38 42 47 50 55 58 60 63 64 65 66 70 70 68 65 63 61 59 59 54 51 52 52 46
Wind_Direction_850mb
271 276 275 275 270 265 257 259 260 263 267 267 273 299 313 312 304 312 324 350 46 188 163 155 149 145 142 140 140 140 141 140 139 140 142 142 145 150 151 150 151 154 145 151
275 265 266 268 267 261 257 255 254 259 264 267 273 275 280 288 298 305 317 331 173 189 170 161 153 148 146 144 143 143 141 138 138 140 145 150 150 153 152 153 154 152 137 134
268 274 295 278 267 265 260 254 254 254 260 270 269 268 272 279 291 296 303 317 238 188 177 166 158 154 152 148 146 144 141 141 141 143 150 155 158 155 157 159 157 150 127 120
273 299 259 254 342 316 304 297 288 270 261 262 266 273 271 269 279 290 292 298 211 184 178 169 161 157 154 150 149 146 147 146 149 150 154 148 152 159 163 155 156 145 126 110
240 230 277 295 295 306 309 289 292 275 262 272 260 264 263 261 276 284 279 273 199 180 172 165 162 161 157 153 152 152 151 154 156 156 162 160 162 166 164 164 160 144 127 115
243 249 262 41 163 358 322 276 27 328 313 299 251 241 256 253 315 312 295 267 177 175 167 164 164 163 158 155 156 157 159 159 155 158 162 162 164 165 168 173 160 149 130 122
247 257 262 6 7 323 226 344 322 330 320 314 282 265 283 300 300 305 294 238 170 169 166 166 165 162 160 158 159 157 156 152 156 157 158 164 165 170 172 167 166 155 139 130
261 239 262 1 318 248 332 312 299 305 297 284 291 275 276 279 290 291 278 184 168 165 165 165 164 162 162 162 158 157 151 152 153 152 152 165 170 166 172 176 171 165 152 145
246 299 288 295 257 278 278 274 284 287 280 274 271 273 276 278 281 272 243 174 167 164 163 164 164 163 162 161 160 156 151 151 152 146 146 155 167 184 182 189 183 173 164 157
307 280 294 311 301 302 298 280 283 270 256 267 268 269 269 269 258 241 206 173 165 164 164 164 164 163 162 160 160 158 155 155 152 146 147 150 162 181 186 187 183 176 167 158
259 274 310 266 320 337 327 328 346 297 263 263 265 268 254 256 226 222 195 174 164 164 165 164 164 163 164 162 159 157 158 156 151 155 148 151 153 157 164 175 175 174 165 164
284 302 317 318 337 341 340 341 7 9 352 281 263 244 237 185 160 168 165 161 163 163 160 160 162 162 166 165 163 159 158 157 152 147 146 155 155 156 152 149 156 168 158 155
328 330 313 331 329 344 341 346 15 24 44 64 226 191 148 130 117 116 133 152 161 160 158 155 156 166 168 168 168 166 163 160 156 150 149 155 163 162 146 144 143 149 153 163
339 344 347 355 346 346 345 0 27 50 60 61 81 98 114 114 100 102 112 130 134 153 159 163 165 166 170 175 174 175 170 167 161 159 157 153 162 165 154 151 141 148 147 147
359 11 0 349 349 346 353 7 36 39 48 52 73 90 91 91 85 83 93 113 135 125 129 145 151 165 175 177 180 181 176 173 170 169 165 156 158 170 157 157 141 141 151 151
4 16 2 358 352 355 7 13 31 33 37 58 72 75 82 86 85 91 106 112 127 127 125 117 121 132 160 181 179 179 178 176 169 170 169 167 157 166 160 146 136 138 142 167
16 14 5 353 352 359 8 22 18 27 45 61 66 81 92 87 91 91 88 98 113 120 131 135 151 152 157 166 178 175 176 182 170 169 163 166 164 163 167 162 149 144 145 160
30 17 18 4 360 1 7 18 28 27 35 44 66 82 84 84 81 93 101 99 90 101 92 112 137 166 174 173 163 177 175 182 182 180 177 177 172 163 165 167 165 154 156 155
33 25 20 22 22 26 32 33 33 36 46 48 61 73 81 74 78 81 91 93 84 77 82 93 138 164 170 176 173 163 178 180 184 186 182 181 178 176 170 166 170 170 169 177
43 33 24 28 32 38 43 52 47 43 46 52 57 65 70 70 76 76 78 78 74 72 79 76 79 88 144 171 178 176 166 185 187 187 186 183 181 181 179 177 167 167 168 173
35 38 37 31 28 33 38 47 61 61 54 59 60 57 57 63 69 76 82 79 71 63 78 64 40 44 98 162 175 191 178 156 177 177 176 168 164 168 171 169 178 165 162 171
36 33 36 39 39 39 39 44 55 62 64 63 63 66 68 65 64 68 76 75 74 73 68 87 88 77 100 174 172 181 184 178 157 136 136 141 141 143 140 133 130 129 127 123
67 62 53 53 50 53 50 50 51 60 64 64 64 67 70 71 73 79 77 75 77 84 96 100 96 105 140 141 142 153 161 167 170 170 163 161 159 160 166 168 166 165 170 174
106 78 65 69 72 66 59 55 58 58 66 68 69 78 79 79 81 78 80 88 94 95 100 112 112 119 116 117 123 134 140 142 141 145 147 144 140 138 138 139 142 143 142 141
125 107 91 72 72 75 72 63 58 57 58 65 70 76 84 90 89 89 91 95 99 104 106 109 107 106 105 105 106 106 109 117 123 126 128 127 122 119 118 122 123 115 113 113
151 132 116 105 103 90 82 76 74 69 66 71 71 71 73 77 84 90 92 95 98 101 101 100 99 99 97 96 98 99 98 99 98 98 98 99 99 99 99 96 95 94 93 94
160 151 135 122 119 111 105 100 91 82 80 86 85 79 77 78 81 83 85 83 84 87 90 91 93 93 93 91 90 91 94 95 94 92 91 92 91 89 89 87 84 86 84 78